Location: Ailly
(50.0793°N, 1.9944°E)
Time: 21:42:43
(UTC+00:00)

SL-08 R/B - Pass Details

Date: 15 January 2026
Orbit: 666 x 730 km, 98.5° (Epoch: 17 February)

Event Time Altitude Azimuth Distance (km) Brightness Sun altitude
Rises 06:25:05 0° 147° (SSE) 3,131 7.6 -12.4°
Reaches altitude 10° 06:27:24 10° 141° (SE) 2,219 6.8 -12.0°
Maximum altitude 06:32:05 49° 68° (ENE) 944 4.3 -11.3°
Drops below altitude 10° 06:36:49 10° 355° (N) 2,241 5.7 -10.6°
Sets 06:39:10 0° 350° (N) 3,165 6.4 -10.3°
